1998-067UH (53770 NORAD) Tracking and Keplerian Element Data

This shows tracking and keplerian element data for the satellite.

Feedback or suggestion? Click here.




ElementValue
Catalog53770
Name1998-067UH
Epoch Orbit1181
Epoch Day325.11520232
Epoch Year2022
RAAN275.465
Inclination51.637
Eccentricity0.0008989
Argument of Perigee120.978
Mean Anonmoly239.2099
Mean Motion15.64044476
Decay Rate0.00111978
L11 53770U 98067UH 22325.11520232 .00111978 00000+0 11486-2 0 9990
L22 53770 51.6370 275.4650 0008989 120.9780 239.2099 15.64044476 11812



Live tracking and technical data element details for 1998-067UH (NORAD 53770). 1998-067UH can be tracked NOW for your location showing map with azimuth and elevation plus other details from your city location.







IsCatalogInMostPopularTable: catalog: 53770, numindb: -1

Insert: records affected: 1


GetName: 53770 1998-067UH

Hit Count: inserted at: Mon, 28 Nov 2022 04:42:26 GMT